Miscellaneous Local Product
Issued by NWS North Platte, NE

Home | Current Version | Previous Version | Graphics & Text | Print | Product List | Glossary On
Versions: 1 2 3 4 5 6 7 8 9 10 11 12 13 14 15 16 17 18 19 20 21 22 23 24 25 26 27 28 29 30 31 32 33 34 35 36 37 38 39 40 41 42 43 44 45 46 47 48 49 50
563
AXUS43 KLBF 300910
MISLBF


WESTERN AND NORTH CENTRAL NEBRASKA HOURLY WEATHER ROUNDUP
NATIONAL WEATHER SERVICE NORTH PLATTE NE
400 AM CDT SAT APR 30 2016

NOTE: "FAIR" INDICATES FEW OR NO CLOUDS BELOW 12,000 FEET WITH NO
SIGNIFICANT WEATHER AND/OR OBSTRUCTIONS TO VISIBILITY.

NOTE: STATIONS NOT REPORTING VARIABLES SUCH AS SKY/WEATHER OR
PRESSURE ARE PROVIDED BY RAWS AND APRS NETWORKS AND ARE NOT UNDER
NATIONAL WEATHER SERVICE QUALITY CONTROL.

...OBSERVATIONS IN AND NEAR THE EASTERN PANHANDLE OF NEBRASKA...

CITY           SKY/WX    TMP DP  RH WIND       PRES   REMARKS
PINE RIDGE     LGT RAIN  37  34  89 NE9       29.95F WCI  30
CHADRON        LGT RAIN  37  35  92 NE17      29.96S WCI  27
ALLIANCE       LGT SNOW  32  32 100 N10       29.89R VSB 3/4 WCI  24
SIDNEY         LGT SNOW  32  31  96 N14       29.87S FOG     WCI  22
CRESCENT LAKE    N/A     32  28  84 NW3         N/A
BIG SPRINGS      N/A     33  32  97 CALM        N/A
$$

...OBSERVATIONS IN NORTHERN NEBRASKA AND FAR SOUTHERN SOUTH DAKOTA...

CITY           SKY/WX    TMP DP  RH WIND       PRES   REMARKS
WINNER         CLOUDY    44  39  82 NE9       29.94F
VALENTINE      LGT RAIN  40  37  89 NE15      29.90F WCI  32
THEDFORD       LGT RAIN  36  35  96 NE12      29.86F WCI  28
AINSWORTH      LGT RAIN  40  39  97 NE15      29.88F WCI  32
O`NEILL        LGT RAIN  41  39  92 E16G24    29.86F
ORD            HVY RAIN  40  39  97 E9        29.82R FOG     WCI  34
BROKEN BOW     RAIN      37  36  96 NE9       29.82F FOG     WCI  30
VALENTINE NWR    N/A     38  37  97 NE13G23     N/A  WCI  30
BUTTE            N/A     41  39  94 NE18G28     N/A
HALSEY           N/A     37  36  97 NE8         N/A  WCI  31
CHAMBERS         N/A     40  39  97 E13         N/A  WCI  32
EWING            N/A     41  39  93 NE15G26     N/A
$$

...OBSERVATIONS IN SOUTHWEST NEBRASKA AND FAR NORTHEAST COLORADO...

CITY           SKY/WX    TMP DP  RH WIND       PRES   REMARKS
IMPERIAL       LGT SNOW  33  32  96 N13       29.83F FOG     WCI  24
OGALLALA       LGT SNOW  33  32  95 N7        29.85F WCI  27
NORTH PLATTE   FLURRIES  33  32  96 N8        29.82F WCI  26
MCCOOK         LGT RAIN  37  35  92 N12       29.80S FOG     WCI  29
LEXINGTON      LGT RAIN  39  35  88 NE14      29.80S WCI  30
PAXTON           N/A     33  30  90 CALM        N/A
STAPLETON        N/A     31  31  99 CALM        N/A
GOTHENBURG       N/A     37  34  89 NE7         N/A  WCI  31
CALLAWAY         N/A     34  32  93 NE5         N/A  WCI  30
$$

...OBSERVATIONS IN CENTRAL LINCOLN COUNTY AREA...

CITY           SKY/WX    TMP DP  RH WIND       PRES   REMARKS
N.P. AIRPORT   FLURRIES  33  32  96 N8        29.82F WCI  26
N.P. DOWNTOWN    N/A     32  32  99 CALM        N/A
N.P. SOUTHEAST   N/A     32  32 100 CALM        N/A
N.P. HILLCREST   N/A     33  33 100 NE7         N/A  WCI  27
$$

...SOME OBSERVATIONS FROM AROUND THE REGION...

CITY           SKY/WX    TMP DP  RH WIND       PRES   REMARKS
DENVER         LGT SNOW  32  29  88 NW8       29.87S VSB 1   WCI  25
LARAMIE        LGT SNOW  26  24  92 N8        29.87F FOG     WCI  18
CHEYENNE       LGT SNOW  30  27  88 N13       29.85F FOG     WCI  20
SCOTTSBLUFF    LGT SNOW  33  31  92 NW6       29.92F FOG     WCI  28
RAPID CITY     CLOUDY    40  37  89 N10       30.02F WCI  33
BISMARCK       CLOUDY    39  32  76 NE6       30.14R WCI  35
PIERRE         PTCLDY    40  37  89 N12       30.00F WCI  33
SIOUX FALLS    CLOUDY    43  38  82 NE14      29.97F
OMAHA          LGT RAIN  46  44  93 E17G26    29.77F FOG
GRAND ISLAND   RAIN      42  41  96 NE12      29.78S FOG
KANSAS CITY    LGT RAIN  53  52  96 E13       29.67F VSB<1/4
WICHITA        CLOUDY    52  50  93 NW13      29.67R
OKLAHOMA CITY  CLOUDY    51  50  96 NW14      29.72S
DALLAS         CLOUDY    65  60  84 N12       29.64F
AMARILLO       CLEAR     38  36  92 NW9       29.82F WCI  31
DODGE CITY     CLOUDY    39  37  92 NW17      29.76F WCI  30
HAYS           CLOUDY    45  36  70 NW8       29.72F
GOODLAND       CLOUDY    32  31  96 N14       29.79F WCI  22
$$




USA.gov is the U.S. government's official web portal to all federal, state and local government web resources and services.